STARLINK-1280, 45388

Orbit data source: Space-Track

STARLINK-1280, 45388 is a payload satellite owned by SpaceX/Seattle (US) in LEO that was launched on Wed, 18 Mar 2020 UTC via an FALCON 9 launch vehicle from the Air Force Eastern Test Range (AFETR). Payload-class satellites include a variety of spacecraft equipped with specific instruments for various scientific and technological missions. These include communications satellites like Starlink; space stations such as the ISS; scientific satellites like the Hubble; Earth observation satellites from companies like Planet Labs, Umbra, and HawkEye 360; GPS; miniature CubeSats for education and research; and military/defense satellites.

Loading next visibility...
Identifier
45388, 2020-019AE
Orbit
LEO
Country
Flag of USUS
Related business
Manufacturer
SpaceX/Seattle
Mission
Partially operational Commercial Communications
Bus & Motor
STARLINK, Unknown motor
Mass
260 kg wet, ~248 kg dry
Launch date (UTC)
2020-03-18 (6 years ago)
Launch vehicle
FALCON 9
Launch site
Air Force Eastern Test Range (AFETR)
Object type
Payload
Rocket body
Debris
Shape & HBR
Box + 1 Pan, 10.1 m
Radar Cross Section
13.562 m², Large (>1 m²)

Expand to show TLE details & history
Last TLE update: 9 hours ago

TLE from 9 hours ago
0 STARLINK-1280
1 45388U 20019AE  26111.85518822  .00066044  00000-0  51362-3 0  9990
2 45388  53.0403 269.5460 0002294 290.5838  69.4933 15.71159673337113
Epoch: 2026-04-21T20:31Z
TLE epoch observation values (Epoch: 2026-04-21T20:31:28.262Z)
Latitude
0.00001°
Longitude
111.75327°
Altitude
355.943 km
Speed
7.697 km/s
True Right ascension
17h 58m 11s
True Declination
0° 00' 00"
Sunlit
Object was in full shadow at epoch
Visualization orbit readout
Latitude
Unknown
Longitude
Unknown
Altitude
Unknown
Speed
Unknown
Apparent Right ascension
Unknown
Apparent Declination
Unknown
Sunlit
N/A
Visualization observer readout
Local Sidereal Time
12:04:09
Azimuth
Unknown
Elevation
Unknown
Doppler factor
Unknown
Orbital elements
Apogee altitude
357.407 km
Perigee altitude
354.317 km
Semi-major axis
6,733.999 km
Eccentricity
0.00023
Inclination
53.0403°
RAAN
269.546°
Arg. of periapsis
290.5838°
True anomaly
69.51792°
Mean anomaly
69.4933°
Eccentric anomaly
69.50561°
Mean motion
3.92766 °/min
Orbital period
91.66 mins
BSTAR
0.00051362
Loading maneuver chart data...
Computing Atmospheric mass density...
Loading historical data...
Loading historical data...
Loading historical data...
Loading historical data...
Loading historical data...
Loading historical data...
Loading historical data...

Documentation

Showing up to 5 results
|